Location: Carbonear
(47.7333°N, 53.2500°W)
Time: 02:07:20
(UTC+00:00)

XW-2D - Pass Details

Date: 30 November 2022
Orbit: 489 x 502 km, 97.5° (Epoch: 28 January)

Event Time Altitude Azimuth Distance (km) Brightness Sun altitude
Rises 21:15:17 0° 184° (S) 2,594 ? -14.9°
Reaches altitude 10° 21:17:28 10° 192° (SSW) 1,711 ? -15.2°
Maximum altitude 21:20:56 38° 262° (W) 777 ? -15.8°
Drops below altitude 10° 21:24:24 10° 332° (NNW) 1,712 ? -16.3°
Sets 21:26:28 0° 340° (NNW) 2,546 ? -16.7°
